Location: Mentone
(34.5413°N, 85.5351°W)
Time: 22:34:32
(UTC-05:00)

ATLAS 5 CENTAUR R/B - Visible Passes

Search period start: 22 June 2017 00:00
Search period end: 02 July 2017 00:00
Orbit: 632 x 1028 km, 63.4° (Epoch: 20 June)

Date Brightness Start Highest point End Pass type
(mag) Time Alt. Az. Time Alt. Az. Time Alt. Az.
22 Jun 5.7 04:51:18 10° NNE 04:52:37 11° NE 04:53:57 10° NE visible
22 Jun 1.6 21:19:39 10° SSW 21:24:09 64° ESE 21:28:59 10° NE visible
22 Jun 4.7 23:06:36 10° WNW 23:09:20 15° NW 23:12:13 10° N visible
23 Jun 5.8 04:33:29 10° NE 04:33:34 10° NE 04:33:41 10° NE visible
23 Jun 1.7 21:00:45 10° SSW 21:05:13 58° ESE 21:10:00 10° NE visible
23 Jun 4.7 22:47:24 10° W 22:50:21 16° NW 22:53:25 10° N visible
24 Jun 1.8 20:41:51 10° SSW 20:46:16 54° ESE 20:51:01 10° NE visible
24 Jun 4.7 22:28:14 10° W 22:31:20 17° NW 22:34:35 10° N visible
25 Jun 1.9 20:22:57 10° S 20:27:20 49° ESE 20:32:01 10° NE visible
25 Jun 4.7 22:09:05 10° W 22:12:19 18° NW 22:15:45 10° N visible
26 Jun 4.6 21:49:57 10° W 21:53:19 19° NW 21:56:53 10° N visible
27 Jun 4.0 04:57:54 10° NNW 05:03:38 42° NE 05:09:46 10° ESE visible
27 Jun 4.6 21:30:49 10° W 21:34:20 20° NW 21:38:03 10° N visible
28 Jun 4.1 04:39:00 10° NNW 04:44:39 39° NE 04:50:44 10° ESE visible
28 Jun 4.6 21:11:43 10° W 21:15:20 22° NW 21:19:10 10° N visible
29 Jun 4.1 04:20:05 10° NNW 04:25:40 37° NE 04:31:40 10° ESE visible
29 Jun 4.5 20:52:36 10° W 20:56:20 23° NW 21:00:18 10° N visible
30 Jun 4.2 04:01:11 10° NNW 04:06:41 35° NE 04:12:35 10° ESE visible
30 Jun 4.5 20:33:32 10° WSW 20:37:20 25° NW 20:41:25 10° N visible
01 Jul 4.2 03:42:17 10° NNW 03:47:42 33° NE 03:53:31 10° ESE visible
